Location: La Fredeussais
(48.1780°N, 1.3980°W)
Time: 12:32:12
(UTC+00:00)

PRISM - Pass Details

Date: 27 October 2021
Orbit: 561 x 584 km, 98.2° (Epoch: 29 November)

Event Time Altitude Azimuth Distance (km) Brightness Sun altitude
Rises 03:43:09 0° 19° (NNE) 2,801 ? -30.4°
Reaches altitude 10° 03:45:23 10° 25° (NNE) 1,893 ? -30.0°
Enters shadow 03:47:52 31° 48° (NE) 1,011 ? -29.6°
